Weather History for Sable Island, NS

Change the Weather History Date:

Tuesday, October 22, 2013

  Actual Average Record
Temperature  
Mean Temperature 54 °F -  
Max Temperature 57 °F 52 °F 62 °F (2003)
Min Temperature 50 °F 45 °F 41 °F (1996)
Degree Days  
Heating Degree Days 12    
Growing Degree Days 4 (Base 50)    
Moisture  
Dew Point 43 °F    
Average Humidity 64    
Maximum Humidity 77    
Minimum Humidity 47    
Precipitation  
Precipitation 0.00 in - - ()
Sea Level Pressure  
Sea Level Pressure 30.03 in    
Wind  
Wind Speed 10 mph ()    
Max Wind Speed 17 mph    
Max Gust Speed 18 mph    
Visibility 9.0 miles    
Events      
Averages and records for this station are not official NWS values.
T = Trace of Precipitation, MM = Missing Value Source: Averaged Metar Reports

Daily Weather History Graph

Daily Weather History Graph

Search for Another Location

Airport:

Trip Planner

Search our weather history database for the weather conditions in past years. The results will help you decide how hot, cold, wet, or windy it might be!

Date:

Astronomy

Oct. 22, 2013 Rise Set
Actual Time 7:23 AM ADT 6:04 PM ADT
Civil Twilight 6:54 AM ADT 6:33 PM ADT
Nautical Twilight 6:20 AM ADT 7:07 PM ADT
Astronomical Twilight 5:47 AM ADT 7:40 PM ADT
Moon 8:35 PM ADT (10/22) 10:52 AM ADT (10/22)
Length of Visible Light 11h 39m
Length of Day
10h 41m
Waning Gibbous, 87% of the Moon is Illuminated
Oct 22
Waning Gibbous
Oct 26
Last Quarter
Nov 3
New
Nov 10
First Quarter
Nov 17
Full

Hourly Weather History & Observations

Time (ADT) Temp. Dew Point Humidity Pressure Visibility Wind Dir Wind Speed Gust Speed Precip Events Conditions
12:00 AM 52 °F 42 °F 61% 30.02 in 9 mi NNW 12.7 mph - -  
12:00 AM 51.8 °F 42.8 °F 71% 30.02 in 9.0 mi NNW 12.7 mph - N/A   Mostly Cloudy
1:00 AM 51.8 °F 42.8 °F 71% 30.03 in 9.0 mi NNW 17.3 mph - N/A   Scattered Clouds
2:00 AM 51.8 °F 41.0 °F 67% 30.03 in 9.0 mi NNW 15.0 mph - N/A   Partly Cloudy
3:00 AM 51 °F 41 °F 59% 30.05 in 9 mi WNW 15.0 mph - -  
3:00 AM 51.8 °F 41.0 °F 67% 30.05 in 9.0 mi WNW 12.7 mph 18.4 mph N/A   Mostly Cloudy
4:00 AM 51.8 °F 41.0 °F 67% 30.04 in 9.0 mi NW 11.5 mph 17.3 mph N/A   Mostly Cloudy
5:00 AM 50.0 °F 39.2 °F 66% 30.06 in 9.0 mi NW 11.5 mph - N/A   Partly Cloudy
6:00 AM 51 °F 40 °F 55% 30.06 in 9 mi NW 11.5 mph - -  
6:00 AM 51.8 °F 39.2 °F 62% 30.06 in 9.0 mi NW 11.5 mph - N/A   Mostly Cloudy
7:00 AM 51.8 °F 39.2 °F 62% 30.06 in 9.0 mi NW 10.4 mph - N/A   Partly Cloudy
8:00 AM 51.8 °F 41.0 °F 67% 30.07 in 9.0 mi NW 8.1 mph - N/A   Scattered Clouds
9:00 AM 54 °F 41 °F 51% 30.09 in 9 mi WNW 5.8 mph - -  
9:00 AM 55.4 °F 41.0 °F 58% 30.09 in 9.0 mi West 5.8 mph - N/A   Partly Cloudy
10:00 AM 55.4 °F 41.0 °F 58% 30.09 in 9.0 mi West 6.9 mph - N/A   Partly Cloudy
11:00 AM 57.2 °F 42.8 °F 59% 30.09 in 9.0 mi West 3.5 mph - N/A   Partly Cloudy
12:00 PM 57 °F 42 °F 47% 30.08 in 9 mi SW 5.8 mph - -  
12:00 PM 57.2 °F 42.8 °F 59% 30.08 in 9.0 mi SW 5.8 mph - N/A   Clear
1:00 PM 57.2 °F 42.8 °F 59% 30.06 in 9.0 mi SW 6.9 mph - N/A   Clear
2:00 PM 57.2 °F 42.8 °F 59% 30.05 in 9.0 mi SSW 8.1 mph - N/A   Clear
3:00 PM 56 °F 44 °F 53% 30.02 in 9 mi South 6.9 mph - -  
3:00 PM 57.2 °F 42.8 °F 59% 30.02 in 9.0 mi South 5.8 mph - N/A   Clear
4:00 PM 55.4 °F 44.6 °F 67% 30.02 in 9.0 mi South 9.2 mph - N/A   Clear
5:00 PM 55.4 °F 44.6 °F 67% 30.02 in 9.0 mi South 8.1 mph - N/A   Clear
6:00 PM 53 °F 44 °F 62% 30.02 in 9 mi South 8.1 mph - -  
6:00 PM 53.6 °F 44.6 °F 72% 30.02 in 9.0 mi South 8.1 mph - N/A   Clear
7:00 PM 53.6 °F 44.6 °F 72% 30.02 in 9.0 mi South 8.1 mph - N/A   Clear
8:00 PM 53.6 °F 46.4 °F 77% 30.00 in 9.0 mi South 10.4 mph - N/A   Clear
9:00 PM 54 °F 47 °F 70% 29.96 in 9 mi SSE 11.5 mph - -  
9:00 PM 53.6 °F 46.4 °F 77% 29.96 in 9.0 mi SSE 15.0 mph - N/A   Clear
10:00 PM 55.4 °F 48.2 °F 77% 29.94 in 9.0 mi South 12.7 mph - N/A   Clear
11:00 PM 55.4 °F 48.2 °F 77% 29.93 in 9.0 mi SSE 16.1 mph - N/A   Clear